Погода в Дугде

Россия / Амурская область     53°20′58″N   130°00′03″E
темп.,
°C
ветер,
м/с
пор.,
м/с
влажн.,
%
обл.,
%
осадки,
мм/ч
давл.,
гПа
погр.,
м
15 апреля, чт
чт1500:00−11зсз228760 0.0 100841
03:00−13з229216 0.0 100825
06:00−13зсз11935 0.0 100920
09:00−5зюз23665 0.0 1009312
12:00−1з455115 0.0 10091416
15:00+1з464450 0.0 10091743
18:000сз23575 0.0 101154
21:00−5з117646 0.0 101310
16 апреля, пт
пт1600:00−8ссв1189100 0.0 101511
03:00−9ссв2192100 0.0 101614
06:00−9ссв2188100 0.0 101721
09:00−3св2366100 0.0 1016193
12:00+1св2356100 0.0 1015463
15:00+4св3442100 0.0 10141008
18:00+2ссв1158100 0.0 101410
21:00−1св3474100 0.0 101566
17 апреля, сб
сб1700:00−2ссв3477100 0.0 101455
03:00−4ссв33743 0.0 101445
06:00−5с33745 0.0 101457
09:00+1с23510 0.0 1013255
12:00+5ссз11330 0.0 1011806
15:00+7з22285 0.0 10101087
18:00+5з22495 0.0 101014
21:000ссз11540 0.0 101110
18 апреля, вс
вс1800:000вюв22565 0.0 101112
03:00−1вюв22595 0.0 101112
06:00−2в23625 0.0 101151
09:00+5ююв46535 0.0 1010474
12:00+11ююз57365 0.0 10071389
15:00+13зюз46355 0.0 10061779
18:00+9сз58605 0.0 1008156
21:00+1ссз48793 0.0 1012117
19 апреля, пн
пн1900:00−1ссз34764 0.0 101361
03:00−2ссз337450 0.0 101452
06:00−1с22645 0.0 101336
09:00+5всв234217 0.0 1011423
12:00+8з3338100 0.0 1010954
15:00+4сз6761100 0.3 1010386
18:00+4зсз5758100 0.3 1011593
21:000сз511682 0.3 1012323